Location: Bastelaar
(51.0950°N, 3.8602°E)
Time: 07:30:35
(UTC+00:00)

BlueWalker 3 - Pass Details

Date: 24 January 2026
Orbit: 450 x 461 km, 53.2° (Epoch: 11 February)

Event Time Altitude Azimuth Distance (km) Brightness Sun altitude
Rises 18:47:28 0° 247° (WSW) 2,452 6.6 -22.6°
Reaches altitude 10° 18:49:36 10° 247° (WSW) 1,581 5.4 -22.9°
Enters shadow 18:52:23 52° 241° (WSW) 567 2.4 -23.4°
